Weather History for Lima, OH

Change the Weather History Date:

Friday, February 8, 2013

  Actual Average (KFDY) Record (KFDY)
Temperature  
Mean Temperature 33 °F -  
Max Temperature 41 °F 29 °F 61 °F (2001)
Min Temperature 25 °F 14 °F -8 °F (1977)
Degree Days  
Heating Degree Days 32    
Moisture  
Dew Point 27 °F    
Average Humidity 79    
Maximum Humidity 93    
Minimum Humidity 69    
Precipitation  
Precipitation 0.18 in - - ()
Sea Level Pressure  
Sea Level Pressure 30.03 in    
Wind  
Wind Speed 13 mph (NW)    
Max Wind Speed 23 mph    
Max Gust Speed 32 mph    
Visibility 8 miles    
Events Rain    
Averages and records for this station are not official NWS values.
T = Trace of Precipitation, MM = Missing Value Source: NWS Daily Summary

Daily Weather History Graph

Daily Weather History Graph

Search for Another Location

Airport:

Trip Planner

Search our weather history database for the weather conditions in past years. The results will help you decide how hot, cold, wet, or windy it might be!

Date:

Astronomy

Feb. 08, 2013 Rise Set
Actual Time 7:38 AM EST 6:02 PM EST
Civil Twilight 7:09 AM EST 6:31 PM EST
Nautical Twilight 6:37 AM EST 7:03 PM EST
Astronomical Twilight 6:05 AM EST 7:35 PM EST
Moon 6:06 AM EST (2/8) 4:34 PM EST (2/8)
Length of Visible Light 11h 21m
Length of Day
10h 24m
Waning Crescent, 3% of the Moon is Illuminated
Feb 8
Waning Crescent
Feb 10
New
Feb 17
First Quarter
Feb 25
Full
Mar 4
Last Quarter

Hourly Weather History & Observations

Time (EST) Temp. Windchill Dew Point Humidity Pressure Visibility Wind Dir Wind Speed Gust Speed Precip Events Conditions
12:53 AM 41.0 °F 37.1 °F 34.0 °F 76% 29.78 in 10.0 mi WSW 5.8 mph - 0.01 in Rain Light Rain
1:53 AM 39.9 °F 33.9 °F 37.0 °F 89% 29.77 in 4.0 mi WSW 9.2 mph - 0.06 in Rain Light Rain
2:03 AM 39.2 °F 33.0 °F 37.4 °F 93% 29.75 in 5.0 mi SW 9.2 mph - 0.01 in Rain Light Rain
2:15 AM 41.0 °F 34.3 °F 37.4 °F 87% 29.75 in 4.0 mi SW 11.5 mph - 0.01 in Rain Light Rain
2:53 AM 39.9 °F 32.1 °F 37.9 °F 93% 29.77 in 3.0 mi WSW 13.8 mph - 0.05 in Rain Light Rain
3:53 AM 39.0 °F 29.6 °F 36.0 °F 89% 29.78 in 4.0 mi West 18.4 mph 26.5 mph 0.04 in Rain Light Rain
4:53 AM 37.0 °F 26.7 °F 34.0 °F 89% 29.80 in 3.0 mi WNW 19.6 mph 26.5 mph 0.02 in   Overcast
5:53 AM 35.1 °F 24.8 °F 32.0 °F 89% 29.83 in 3.0 mi West 17.3 mph 28.8 mph N/A   Overcast
6:45 AM 33.8 °F 21.9 °F 30.2 °F 87% 29.84 in 3.0 mi WNW 21.9 mph 27.6 mph N/A   Overcast
6:53 AM 34.0 °F 23.0 °F 30.9 °F 89% 29.87 in 4.0 mi WNW 18.4 mph 27.6 mph N/A   Overcast
7:50 AM 33.8 °F 22.2 °F 28.4 °F 81% 29.88 in 7.0 mi WNW 20.7 mph - N/A   Overcast
7:53 AM 33.1 °F 20.6 °F 28.0 °F 82% 29.91 in 7.0 mi WNW 23.0 mph 31.1 mph N/A   Overcast
8:43 AM 32.0 °F 19.8 °F 26.6 °F 80% 29.92 in 7.0 mi NW 20.7 mph 32.2 mph N/A   Overcast
8:53 AM 32.0 °F 19.5 °F 26.1 °F 79% 29.95 in 9.0 mi NW 21.9 mph 29.9 mph N/A   Overcast
9:53 AM 30.9 °F 18.7 °F 26.1 °F 82% 29.99 in 10.0 mi NW 19.6 mph 27.6 mph N/A   Overcast
10:53 AM 30.9 °F 19.4 °F 25.0 °F 79% 30.04 in 10.0 mi NW 17.3 mph 24.2 mph N/A   Overcast
11:53 AM 32.0 °F 21.2 °F 26.1 °F 79% 30.07 in 10.0 mi NW 16.1 mph 25.3 mph N/A   Overcast
12:53 PM 30.9 °F 19.8 °F 25.0 °F 79% 30.09 in 10.0 mi NW 16.1 mph 24.2 mph N/A   Overcast
1:53 PM 32.0 °F 20.5 °F 24.1 °F 73% 30.11 in 10.0 mi NW 18.4 mph - N/A   Overcast
2:53 PM 30.9 °F 20.7 °F 23.0 °F 72% 30.13 in 10.0 mi NNW 13.8 mph 28.8 mph N/A   Overcast
3:53 PM 30.9 °F 20.2 °F 23.0 °F 72% 30.16 in 10.0 mi NNW 15.0 mph - N/A   Overcast
4:53 PM 30.0 °F 19.1 °F 21.0 °F 69% 30.19 in 10.0 mi North 15.0 mph 20.7 mph N/A   Overcast
5:53 PM 28.9 °F 18.2 °F 19.9 °F 69% 30.23 in 10.0 mi North 13.8 mph - N/A   Overcast
6:53 PM 28.0 °F 17.5 °F 19.9 °F 72% 30.27 in 10.0 mi North 12.7 mph - N/A   Overcast
7:53 PM 28.0 °F 19.3 °F 19.0 °F 69% 30.29 in 10.0 mi North 9.2 mph - N/A   Mostly Cloudy
8:03 PM 26.6 °F 20.0 °F 19.4 °F 74% 30.26 in 10.0 mi NNW 5.8 mph - N/A   Scattered Clouds
8:53 PM 26.1 °F 18.4 °F 19.0 °F 75% 30.32 in 10.0 mi NNW 6.9 mph - N/A   Clear
9:53 PM 26.1 °F 18.4 °F 17.1 °F 69% 30.33 in 10.0 mi NNW 6.9 mph - N/A   Clear
10:53 PM 25.0 °F 17.1 °F 16.0 °F 69% 30.35 in 10.0 mi NNW 6.9 mph - N/A   Clear
11:53 PM 25.0 °F 16.3 °F 16.0 °F 69% 30.35 in 10.0 mi NNW 8.1 mph - N/A   Clear